Location: Alafon
(8.4500°N, 4.2333°E)
Time: 04:02:00
(UTC+00:00)

Vanguard 2 - Pass Details

Date: 09 August 2021
Orbit: 552 x 2937 km, 32.9° (Epoch: 21 September)

Event Time Altitude Azimuth Distance (km) Brightness Sun altitude
Rises 17:45:33 0° 208° (SSW) 6,777 12.5 3.0°
Reaches altitude 10° 17:54:49 10° 184° (S) 5,535 11.8 0.8°
Maximum altitude 18:00:52 13° 161° (SSE) 5,006 11.4 -0.7°
Drops below altitude 10° 18:06:17 10° 139° (SE) 4,887 11.1 -2.0°
Enters shadow 18:11:41 - 118° (ESE) 5,192 11.1 -3.2°
Sets 18:13:00 0° 113° (ESE) 5,331 - -3.5°
